This is the latest recevied weather packets stored in our database for station/object OK2JV-13. If no packets are shown the sender has not sent any weather packets the latest 10 day(s).
| Time | Temp. | Humidity | Pressure | Rain* | Wind** | Luminosity | Snow |
|---|---|---|---|---|---|---|---|
| 1787428261 | 12.22° C | 76% | 1016.8 hPa | - | - | - | - |
| 1787427656 | 12.78° C | 73% | 1016.8 hPa | - | - | - | - |
| 1787427052 | 12.78° C | 72% | 1016.8 hPa | - | - | - | - |
| 1787426448 | 12.78° C | 72% | 1016.7 hPa | - | - | - | - |
| 1787425844 | 12.78° C | 71% | 1016.6 hPa | - | - | - | - |
| 1787425240 | 12.78° C | 71% | 1016.5 hPa | - | - | - | - |
| 1787424636 | 13.33° C | 70% | 1016.5 hPa | - | - | - | - |
| 1787424032 | 13.33° C | 70% | 1016.5 hPa | - | - | - | - |
| 1787423429 | 13.89° C | 70% | 1016.3 hPa | - | - | - | - |
| 1787422824 | 13.89° C | 69% | 1016 hPa | - | - | - | - |
| 1787422220 | 14.44° C | 69% | 1015.9 hPa | - | - | - | - |
| 1787421618 | 14.44° C | 69% | 1015.7 hPa | - | - | - | - |
| 1787421012 | 15° C | 68% | 1015.6 hPa | - | - | - | - |
| 1787420406 | 15° C | 67% | 1015.5 hPa | - | - | - | - |
| 1787419804 | 15.56° C | 68% | 1015.5 hPa | - | - | - | - |
| 1787419198 | 15.56° C | 66% | 1015.3 hPa | - | - | - | - |
| 1787418594 | 15.56° C | 67% | 1015.4 hPa | - | - | - | - |
| 1787417990 | 16.11° C | 66% | 1015.4 hPa | - | - | - | - |
| 1787417386 | 16.11° C | 63% | 1015.2 hPa | - | - | - | - |
| 1787416782 | 16.11° C | 62% | 1014.9 hPa | - | - | - | - |
| 1787416178 | 16.67° C | 61% | 1014.8 hPa | - | - | - | - |
| 1787415575 | 16.67° C | 61% | 1014.8 hPa | - | - | - | - |
| 1787414970 | 16.67° C | 61% | 1014.9 hPa | - | - | - | - |
| 1787414367 | 16.67° C | 61% | 1014.9 hPa | - | - | - | - |
| 1787413762 | 16.67° C | 61% | 1014.7 hPa | - | - | - | - |
* Rain since midnight (hover to see other rain measurements)
** Current wind speed in m/s (hover to see current wind gust speed)